This demonstration page uses our WeatherBlox Daily Observations layout. Learn more.

Left ArrowRight Arrow

39.08367, -84.50855

Hourly Observations for April 8, 2022

Temp ( °F °C ) Dew Point ( °F °C ) Humidity (%) Winds ( mph kmh ) Pressure ( in mb ) Visibility ( mi km ) Precip ( " mm )
12:16 am 00:16 Mostly Cloudy with Mist and Fog 35 1.7 35 1.7 100 100 Calm 29.76 1008 1 2 0.00 0.00
12:20 am 00:20 Clear with Mist and Fog 35 1.7 35 1.7 100 100 Calm 29.76 1008 1 1 0.00 0.00
12:26 am 00:26 Mostly Clear with Fog 34 1.1 34 1.1 100 100 Calm 29.77 1008 0 0 0.00 0.00
12:53 am 00:53 Cloudy with Fog 34 1.1 34 1.1 100 100 Calm 29.74 1007 0 0 0.00 0.00
1:07 am 01:07 Mostly Cloudy with Mist and Fog 34 1.1 34 1.1 100 100 Calm 29.76 1008 1 1 0.00 0.00
1:43 am 01:43 Mostly Cloudy with Fog 34 1.1 34 1.1 100 100 Calm 29.75 1007 0 0 0.00 0.00
1:53 am 01:53 Cloudy with Fog 34 1.1 34 1.1 100 100 Calm 29.72 1007 0 0 0.00 0.00
2:37 am 02:37 Cloudy with Fog 33 0.6 33 0.6 100 100 Calm 29.74 1007 1 1 0.00 0.00
2:48 am 02:48 Mostly Cloudy with Mist and Fog 34 1 34 1 100 100 Calm 29.74 1007 2 3 0.00 0.00
2:53 am 02:53 Partly Cloudy 34 1.1 34 1.1 100 100 Calm 29.71 1006 8 13 0.00 0.00
3:48 am 03:48 Clear with Mist and Fog 34 1 34 1 100 100 Calm 29.72 1006 2 3 0.00 0.00
3:53 am 03:53 Clear with Fog 33 0.6 33 0.6 100 100 Calm 29.70 1006 1 1 0.00 0.00
4:11 am 04:11 Clear with Mist and Fog 33 0.6 33 0.6 100 100 Calm 29.72 1006 1 2 0.00 0.00
4:19 am 04:19 Clear with Fog 33 0.6 33 0.6 100 100 Calm 29.72 1006 1 1 0.00 0.00
4:29 am 04:29 Clear with Fog 33 0.6 33 0.6 100 100 Calm 29.72 1006 0 0 0.00 0.00
4:37 am 04:37 Clear with Fog 33 0.6 33 0.6 100 100 Calm 29.72 1006 1 1 0.00 0.00
4:49 am 04:49 Clear with Mist and Fog 32 0 32 0 100 100 Calm 29.71 1006 1 2 0.00 0.00
4:53 am 04:53 Mostly Clear with Mist and Fog 32 0 32 0 100 100 NNE 3 6 29.68 1005 1 2 0.00 0.00
5:00 am 05:00 Partly Cloudy with Mist and Fog 32 0 32 0 100 100 Calm 29.71 1006 3 5 0.00 0.00
5:53 am 05:53 Cloudy with Mist and Fog 34 1.1 34 1.1 100 100 Calm 29.68 1005 6 10 0.00 0.00
6:29 am 06:29 Mostly Cloudy with Mist and Fog 33 0.6 33 0.6 100 100 Calm 29.71 1006 2 3 0.00 0.00
6:45 am 06:45 Mostly Cloudy 33 0.6 33 0.6 100 100 SSW 3 6 29.71 1006 10 16 0.00 0.00
6:53 am 06:53 Mostly Cloudy 34 1.1 34 1.1 100 100 SW 8 13 29.69 1005 10 16 0.00 0.00
7:53 am 07:53 Partly Cloudy 38 3.3 33 0.6 83 83 SW 9 15 29.69 1005 10 16 0.00 0.00
8:53 am 08:53 Mostly Sunny 42 5.6 35 1.7 76 76 WSW 8 13 29.69 1006 10 16 0.00 0.00
9:53 am 09:53 Mostly Cloudy 44 6.7 36 2.2 73 73 W 13 20 29.69 1006 10 16 0.00 0.00
10:53 am 10:53 Mostly Cloudy 46 7.8 35 1.7 66 66 SW 14 22 29.70 1006 10 16 0.00 0.00
11:53 am 11:53 Cloudy 47 8.3 35 1.7 63 63 WSW 12 19 29.70 1006 10 16 0.00 0.00
12:53 pm 12:53 Cloudy 48 8.9 34 1.1 58 58 W 14 22 29.69 1006 10 16 0.00 0.00
1:53 pm 13:53 Mostly Cloudy 51 10.6 34 1.1 52 52 WSW 9 15 29.68 1005 10 16 0.00 0.00
2:53 pm 14:53 Cloudy with Light Rain 49 9.4 33 0.6 55 55 SW 7 11 29.68 1005 10 16 0.00 0.00
3:53 pm 15:53 Mostly Cloudy 46 7.8 38 3.3 73 73 WSW 17 28 29.70 1006 8 13 0.05 1.27
4:53 pm 16:53 Cloudy 46 7.8 38 3.3 73 73 WSW 15 24 29.71 1006 10 16 0.00 0.00
5:12 pm 17:12 Mostly Cloudy with Light Rain 44 6.7 36 2.2 73 73 W 12 19 29.72 1007 10 16 0.00 0.00
5:53 pm 17:53 Mostly Cloudy 47 8.3 35 1.7 63 63 W 9 15 29.71 1006 10 16 0.00 0.00
6:53 pm 18:53 Cloudy with Rain 45 7.2 36 2.2 71 71 WSW 12 19 29.73 1007 6 10 0.01 0.25
7:53 pm 19:53 Mostly Sunny 44 6.7 33 0.6 65 65 W 15 24 29.74 1007 10 16 0.02 0.51
8:53 pm 20:53 Cloudy 43 6.1 32 0 65 65 W 8 13 29.76 1008 10 16 0.00 0.00
9:53 pm 21:53 Mostly Cloudy 42 5.6 32 0 68 68 W 13 20 29.79 1009 10 16 0.00 0.00
10:53 pm 22:53 Cloudy 41 5 34 1.1 76 76 WSW 14 22 29.80 1009 10 16 0.00 0.00
11:34 pm 23:34 Cloudy 40 4.4 34 1.1 79 79 W 12 19 29.82 1010 10 16 0.00 0.00
11:53 pm 23:53 Cloudy 40 4.4 34 1.1 79 79 WSW 12 19 29.80 1009 10 16 0.00 0.00

Powered by AerisWeather